Volver al catálogo

STARLINK-3501

ActivoComunicacionesVLEO
NORAD 51748·PAYLOAD·🇺🇸 United States

Lanzado Feb 21, 2022 desde Cape Canaveral Space Force Station

Loading…

Próximos Pases (próximas 24 horas)

TLE

ActualizadoSource: CelesTrak SupGP

Época: Sep 15, 2026, 02:28 UTC

1 51748C 22016AL  26258.10326389  .00022945  00000+0  67797-3 0  2589
2 51748  53.1580 164.5978 0001345  80.5136 130.4146 15.34376138    16

Sigue STARLINK-3501 en tiempo real con AllMySat

Download on the App Store